Retour au catalogue

FENGYUN 1C DEB

ActifSSO
NORAD 32362·DEBRIS·🇨🇳 China

Lancé May 10, 1999 depuis Taiyuan Satellite Launch Center

Loading…

Prochains Passages (prochaines 24 heures)

TLE

FraisSource: Space-Track

Époque: Sep 13, 2026, 16:12 UTC

1 32362U 99025CZF 26256.67512338  .00001732  00000-0  16743-2 0  9993
2 32362  99.8521 237.5064 0268666 306.9504  50.7307 13.66532656948837

Suivez FENGYUN 1C DEB en temps réel avec AllMySat

Download on the App Store